Location: Eastlake (historical)
(39.0077°N, 122.6678°W)
Time: 11:54:11
(UTC+00:00)

CENTAUR R/B - Visible Passes

Search period start: 16 June 2021 00:00
Search period end: 26 June 2021 00:00
Orbit: 742 x 1446 km, 63.4° (Epoch: 14 June)

Date Brightness Start Highest point End Pass type
(mag) Time Alt. Az. Time Alt. Az. Time Alt. Az.
16 Jun 2.4 04:01:29 10° SSW 04:06:59 61° ESE 04:13:31 10° NE visible
16 Jun 4.7 05:53:06 10° W 05:58:12 27° NW 06:04:03 10° NNE visible
16 Jun 5.9 07:50:26 10° NNW 07:51:49 11° NNW 07:53:12 10° N visible
16 Jun 6.0 09:43:40 10° N 09:46:34 12° NNE 09:49:35 10° NE visible
16 Jun 5.2 11:32:59 10° NNW 11:40:07 32° NE 11:47:48 10° ESE visible
17 Jun 3.9 05:03:55 10° WSW 05:09:26 42° NW 05:15:57 10° NNE visible
17 Jun 5.7 06:59:21 10° NW 07:02:22 13° NNW 07:05:35 10° N visible
17 Jun 6.2 08:56:28 10° N 08:57:00 10° N 08:57:33 10° NNE visible
17 Jun 5.6 10:45:01 10° NNW 10:51:08 23° NE 10:57:42 10° E visible
18 Jun 2.9 04:15:14 10° SW 04:20:55 69° NW 04:27:43 10° NNE visible
18 Jun 5.5 06:08:57 10° WNW 06:13:06 18° NNW 06:17:43 10° NNE visible
18 Jun 5.9 09:57:05 10° N 10:01:56 17° NNE 10:07:06 10° ENE visible
18 Jun 4.3 11:46:44 10° NNW 11:54:41 50° NE 12:03:17 10° ESE visible
19 Jun 5.0 05:19:06 10° W 05:24:03 25° NW 05:29:43 10° NNE visible
19 Jun 6.1 07:17:04 10° NNW 07:17:48 10° N 07:18:33 10° N visible
19 Jun 6.1 09:09:15 10° N 09:12:33 13° NNE 09:16:01 10° NE visible
19 Jun 4.9 10:58:38 10° NNW 11:05:57 35° NE 11:13:51 10° ESE visible
20 Jun 4.2 04:29:47 10° WSW 04:35:14 38° NW 04:41:38 10° NNE visible
20 Jun 5.9 06:25:38 10° NW 06:28:19 12° NNW 06:31:11 10° N visible
20 Jun 6.1 08:21:42 10° N 08:23:01 10° N 08:24:21 10° NNE visible
20 Jun 5.4 10:10:38 10° NNW 10:17:01 25° NE 10:23:53 10° E visible
20 Jun 3.5 12:00:38 10° NNW 12:09:00 81° ENE 12:17:58 10° SE visible
21 Jun 5.6 05:35:06 10° WNW 05:39:02 16° NNW 05:43:20 10° N visible
21 Jun 5.7 09:22:42 10° NNW 09:27:53 18° NNE 09:33:23 10° ENE visible
21 Jun 4.1 11:12:24 10° NNW 11:20:29 55° NE 11:29:11 10° SE visible
22 Jun 5.2 04:45:08 10° W 04:49:56 23° NW 04:55:22 10° NNE visible
22 Jun 5.9 08:34:51 10° N 08:38:32 14° NNE 08:42:24 10° NE visible
22 Jun 4.7 10:24:18 10° NNW 10:31:47 38° NE 10:39:52 10° ESE visible
23 Jun 5.8 05:51:57 10° NW 05:54:18 12° NNW 05:56:46 10° N visible
23 Jun 6.0 07:47:10 10° N 07:49:02 11° NNE 07:50:57 10° NNE visible
23 Jun 5.1 09:36:17 10° NNW 09:42:54 27° NE 09:50:02 10° E visible
23 Jun 3.4 11:26:21 10° NNW 11:34:44 88° NE 11:43:43 10° SSE visible
24 Jun 5.6 05:01:17 10° WNW 05:04:57 15° NNW 05:08:57 10° N visible
24 Jun 5.5 08:48:19 10° NNW 08:53:49 19° NNE 08:59:40 10° ENE visible
24 Jun 3.8 10:38:05 10° NNW 10:46:16 60° NE 10:55:03 10° SE visible
25 Jun 5.4 04:11:11 10° W 04:15:48 21° NNW 04:21:01 10° NNE visible
25 Jun 5.7 08:00:26 10° N 08:04:31 15° NNE 08:08:48 10° NE visible
25 Jun 4.4 09:49:57 10° NNW 09:57:37 41° NE 10:05:52 10° ESE visible
25 Jun 3.4 11:40:33 10° NW 11:48:45 57° WSW 11:57:24 10° SSE visible
